ROMMA est une association bénévole à but non lucratif. Votre soutien est indispensable : ADHERER à ROMMA ou FAIRE un DON

Crêts du Salève - (74, Haute-Savoie)

Salève (1300 m)   Longitude: 6° 10' 28'' E   Latitude: 46° 7' 42'' N Station romma n°73
 

Détail journalier du     <<     >>

Température Humidité Vent Dir Rafale Dir. rafale Ensol.
Heure (°C) (%) (km/h) (km/h) (min)
01:00 -2.69524N29N0
02:00 -2.49226N32N0
03:00 -2.69330N37N0
04:00 -2.69132N39N0
05:00 -2.99332N40N0
06:00 -3.19431NNE40N0
07:00 -2.79234N48NNE0
08:00 -2.89534N45NNE60
09:00 -2.18833NNE45N60
10:00 -1.88234NNE47N60
11:00 -1.69329N44N60
12:00 -0.88727N39N60
13:00 -0.18022N35N60
14:00 0.37724N40NNO60
15:00 1.17228N47N60
16:00 0.96730N47NNO50
17:00 0.86727N44N40
18:00 0.07227N42NNE0
19:00 -0.47032N50NNE0
20:00 -0.77537NNE53NNE0
21:00
22:00
23:00
minuit

Graphique du 19-03-2019

 

Serveur OMMA